Weather History for Palm Springs, CA

Change the Weather History Date:

Monday, February 18, 2013

  Actual Average Record
Temperature  
Mean Temperature 61 °F 61 °F  
Max Temperature 75 °F 73 °F 95 °F (1981)
Min Temperature 46 °F 48 °F 30 °F (1956)
Degree Days  
Heating Degree Days 4 5  
Month to date heating degree days 82 110  
Since 1 July heating degree days 658 737  
Cooling Degree Days 0 1  
Month to date cooling degree days 11 17  
Year to date cooling degree days 12 25  
Growing Degree Days 10 (Base 50)    
Moisture  
Dew Point 32 °F    
Average Humidity 40    
Maximum Humidity 65    
Minimum Humidity 15    
Precipitation  
Precipitation 0.00 in 0.05 in 0.74 in (1980)
Month to date precipitation 0.03 0.60  
Year to date precipitation 0.64 1.60  
Since 1 July precipitation 1.86 4.40  
Snow  
Snow 0.00 in - - ()
Month to date snowfall 0.0  
Year to date snowfall 0.0  
Since 1 July snowfall 0.0  
Snow Depth 0.00 in    
Sea Level Pressure  
Sea Level Pressure 29.91 in    
Wind  
Wind Speed 2 mph (ESE)    
Max Wind Speed 12 mph    
Max Gust Speed 15 mph    
Visibility 10 miles    
Events      
T = Trace of Precipitation, MM = Missing Value Source: NWS Daily Summary

Daily Weather History Graph

Daily Weather History Graph

Search for Another Location

Airport:

Trip Planner

Search our weather history database for the weather conditions in past years. The results will help you decide how hot, cold, wet, or windy it might be!

Date:

Astronomy

Feb. 18, 2013 Rise Set
Actual Time 6:26 AM PST 5:33 PM PST
Civil Twilight 6:01 AM PST 5:58 PM PST
Nautical Twilight 5:32 AM PST 6:27 PM PST
Astronomical Twilight 5:03 AM PST 6:56 PM PST
Moon 11:30 AM PST (2/18) 1:03 AM PST (2/18)
Length of Visible Light 11h 57m
Length of Day
11h 06m
First Quarter, 59% of the Moon is Illuminated
Feb 18
First Quarter
Feb 25
Full
Mar 4
Last Quarter
Mar 11
New
Mar 19
First Quarter

Hourly Weather History & Observations

Time (PST) Temp. Dew Point Humidity Pressure Visibility Wind Dir Wind Speed Gust Speed Precip Events Conditions
12:53 AM 55.9 °F 34.0 °F 44% 29.91 in 10.0 mi Calm Calm - N/A   Clear
1:53 AM 52.0 °F 36.0 °F 54% 29.91 in 10.0 mi Calm Calm - N/A   Clear
2:53 AM 51.1 °F 36.0 °F 56% 29.91 in 10.0 mi Calm Calm - N/A   Clear
3:53 AM 48.9 °F 36.0 °F 61% 29.91 in 10.0 mi Calm Calm - N/A   Clear
4:53 AM 48.0 °F 36.0 °F 63% 29.94 in 10.0 mi Calm Calm - N/A   Clear
6:53 AM 46.9 °F 36.0 °F 66% 29.97 in 10.0 mi Calm Calm - N/A   Clear
7:53 AM 57.0 °F 30.9 °F 37% 29.99 in 10.0 mi Calm Calm - N/A   Clear
8:53 AM 60.1 °F 32.0 °F 35% 30.00 in 10.0 mi South 4.6 mph - N/A   Clear
9:53 AM 64.0 °F 33.1 °F 31% 29.99 in 10.0 mi SE 3.5 mph - N/A   Clear
10:53 AM 66.9 °F 30.0 °F 25% 29.98 in 10.0 mi Calm Calm - N/A   Clear
11:53 AM 71.1 °F 28.0 °F 20% 29.95 in 10.0 mi ESE 4.6 mph - N/A   Clear
12:53 PM 73.0 °F 24.1 °F 16% 29.92 in 10.0 mi East 4.6 mph - N/A   Partly Cloudy
1:53 PM 75.0 °F 24.1 °F 15% 29.91 in 10.0 mi East 8.1 mph - N/A   Scattered Clouds
2:53 PM 73.0 °F 26.1 °F 17% 29.88 in 10.0 mi SE 4.6 mph - N/A   Scattered Clouds
3:53 PM 73.9 °F 24.1 °F 16% 29.86 in 10.0 mi East 5.8 mph - N/A   Clear
4:53 PM 72.0 °F 26.1 °F 18% 29.85 in 10.0 mi East 4.6 mph - N/A   Partly Cloudy
5:53 PM 69.1 °F 25.0 °F 19% 29.85 in 10.0 mi East 5.8 mph - N/A   Partly Cloudy
6:53 PM 64.9 °F 34.0 °F 32% 29.86 in 10.0 mi NW 3.5 mph - N/A   Clear
7:53 PM 66.0 °F 35.1 °F 32% 29.86 in 10.0 mi Calm Calm - N/A   Clear
8:53 PM 63.0 °F 37.9 °F 40% 29.87 in 10.0 mi WNW 8.1 mph - N/A   Clear
9:53 PM 60.1 °F 37.9 °F 44% 29.87 in 10.0 mi Calm Calm - N/A   Clear
10:53 PM 57.9 °F 39.9 °F 51% 29.86 in 10.0 mi West 4.6 mph - N/A   Clear
11:53 PM 54.0 °F 41.0 °F 62% 29.85 in 10.0 mi Calm Calm - N/A   Clear